Weather History for Taylorville, IL

Change the Weather History Date:

Wednesday, November 6, 2013

  Actual Average (KSPI) Record (KSPI)
Temperature  
Mean Temperature 44 °F 48 °F  
Max Temperature 55 °F 58 °F 79 °F (1915)
Min Temperature 33 °F 38 °F 19 °F (1993)
Degree Days  
Heating Degree Days 21 17  
Month to date heating degree days 98  
Since 1 July heating degree days 508  
Cooling Degree Days 0 0  
Month to date cooling degree days 0  
Year to date cooling degree days 1121  
Moisture  
Dew Point 43 °F    
Average Humidity 91    
Maximum Humidity 100    
Minimum Humidity 81    
Precipitation  
Precipitation 0.34 in 0.10 in 1.10 in (2000)
Month to date precipitation 0.62  
Year to date precipitation 32.32  
Snow  
Snow 0.00 in 0.00 in 7.80 in (1951)
Month to date snowfall 0.0  
Since 1 July snowfall T  
Since 1 September snowfall T  
Snow Depth -    
Sea Level Pressure  
Sea Level Pressure 30.04 in    
Wind  
Wind Speed 15 mph (WSW)    
Max Wind Speed 24 mph    
Max Gust Speed 36 mph    
Visibility 9 miles    
Events Rain    
T = Trace of Precipitation, MM = Missing Value Source: NWS Daily Summary

Daily Weather History Graph

Daily Weather History Graph

Search for Another Location

Airport:

Trip Planner

Search our weather history database for the weather conditions in past years. The results will help you decide how hot, cold, wet, or windy it might be!

Date:

Astronomy

Nov. 06, 2013 Rise Set
Actual Time 6:31 AM CST 4:49 PM CST
Civil Twilight 6:03 AM CST 5:18 PM CST
Nautical Twilight 5:31 AM CST 5:50 PM CST
Astronomical Twilight 4:59 AM CST 6:21 PM CST
Moon 9:46 AM CST (11/6) 7:54 PM CST (11/6)
Length of Visible Light 11h 14m
Length of Day
10h 18m
Waxing Crescent, 14% of the Moon is Illuminated
Nov 6
Waxing Crescent
Nov 9
First Quarter
Nov 17
Full
Nov 25
Last Quarter
Dec 2
New

Hourly Weather History & Observations

Time (CST) Temp. Windchill Dew Point Humidity Pressure Visibility Wind Dir Wind Speed Gust Speed Precip Events Conditions
12:35 AM 53.6 °F - 50.0 °F 88% 29.99 in 10.0 mi South 16.1 mph 20.7 mph 0.01 in Rain Light Rain
12:55 AM 53.6 °F - 51.8 °F 94% 29.98 in 10.0 mi South 16.1 mph 21.9 mph 0.02 in Rain Light Rain
1:15 AM 53.6 °F - 51.8 °F 94% 29.98 in 10.0 mi South 12.7 mph 19.6 mph 0.01 in Rain Light Rain
1:35 AM 55.4 °F - 51.8 °F 88% 29.97 in 10.0 mi South 16.1 mph 20.7 mph 0.02 in Rain Rain
1:55 AM 53.6 °F - 53.6 °F 100% 29.97 in 10.0 mi South 15.0 mph 19.6 mph 0.03 in Rain Light Rain
2:15 AM 55.4 °F - 51.8 °F 88% 29.95 in 10.0 mi South 18.4 mph 23.0 mph N/A   Overcast
2:35 AM 53.6 °F - 51.8 °F 94% 29.94 in 10.0 mi South 17.3 mph 21.9 mph N/A Rain Light Rain
2:55 AM 53.6 °F - 51.8 °F 94% 29.94 in 10.0 mi South 18.4 mph 23.0 mph N/A   Mostly Cloudy
3:15 AM 53.6 °F - 51.8 °F 94% 29.93 in 10.0 mi South 17.3 mph 21.9 mph N/A   Light Drizzle
3:35 AM 53.6 °F - 51.8 °F 94% 29.93 in 10.0 mi South 16.1 mph - N/A   Light Drizzle
3:55 AM 53.6 °F - 51.8 °F 94% 29.93 in 10.0 mi South 15.0 mph 23.0 mph N/A   Mostly Cloudy
4:15 AM 53.6 °F - 51.8 °F 94% 29.93 in 10.0 mi South 16.1 mph - N/A   Overcast
4:35 AM 53.6 °F - 51.8 °F 94% 29.93 in 10.0 mi South 19.6 mph 25.3 mph N/A   Light Drizzle
4:55 AM 53.6 °F - 51.8 °F 94% 29.92 in 10.0 mi South 19.6 mph 24.2 mph 0.02 in Rain Light Rain
5:15 AM 53.6 °F - 51.8 °F 94% 29.92 in 10.0 mi South 17.3 mph - 0.01 in Rain Light Rain
5:35 AM 53.6 °F - 51.8 °F 94% 29.93 in 10.0 mi South 17.3 mph 21.9 mph 0.02 in Rain Light Rain
5:55 AM 53.6 °F - 51.8 °F 94% 29.92 in 5.0 mi South 17.3 mph - 0.08 in Rain Rain
6:15 AM 53.6 °F - 51.8 °F 94% 29.91 in 7.0 mi South 16.1 mph 21.9 mph 0.04 in Rain Rain
6:35 AM 53.6 °F - 51.8 °F 94% 29.91 in 7.0 mi South 16.1 mph - 0.06 in Rain Rain
6:55 AM 53.6 °F - 51.8 °F 94% 29.92 in 3.0 mi South 19.6 mph 25.3 mph 0.17 in Rain Rain
7:15 AM 53.6 °F - 51.8 °F 94% 29.92 in 5.0 mi South 17.3 mph 26.5 mph 0.01 in Rain Light Rain
7:35 AM 53.6 °F - 51.8 °F 94% 29.93 in 5.0 mi South 18.4 mph - 0.01 in Rain Rain
7:55 AM 53.6 °F - 51.8 °F 94% 29.93 in 7.0 mi South 16.1 mph 24.2 mph 0.01 in Rain Light Rain
8:15 AM 53.6 °F - 51.8 °F 94% 29.93 in 3.0 mi South 21.9 mph 26.5 mph N/A   Light Drizzle
8:35 AM 53.6 °F - 51.8 °F 94% 29.92 in 10.0 mi South 19.6 mph 25.3 mph N/A   Overcast
8:55 AM 53.6 °F - 51.8 °F 94% 29.92 in 10.0 mi South 16.1 mph 23.0 mph N/A   Overcast
9:15 AM 53.6 °F - 53.6 °F 100% 29.92 in 10.0 mi South 15.0 mph - N/A   Overcast
9:35 AM 53.6 °F - 53.6 °F 100% 29.89 in 10.0 mi South 13.8 mph 19.6 mph N/A   Overcast
9:55 AM 55.4 °F - 53.6 °F 94% 29.93 in 10.0 mi SSW 13.8 mph - N/A   Overcast
10:15 AM 55.4 °F - 53.6 °F 94% 29.93 in 10.0 mi SSW 16.1 mph 21.9 mph N/A   Overcast
10:35 AM 55.4 °F - 51.8 °F 88% 29.95 in 10.0 mi West 24.2 mph 35.7 mph N/A   Overcast
10:55 AM 48.2 °F - 46.4 °F 93% 29.98 in 5.0 mi West 19.6 mph 27.6 mph N/A   Light Drizzle
11:15 AM 46.4 °F 39.8 °F 44.6 °F 93% 29.99 in 2.0 mi West 16.1 mph 20.7 mph N/A   Drizzle
11:35 AM 44.6 °F 37.2 °F 42.8 °F 93% 30.00 in 10.0 mi West 17.3 mph 24.2 mph N/A   Overcast
11:55 AM 44.6 °F 37.4 °F 42.8 °F 93% 30.00 in 5.0 mi WNW 16.1 mph 25.3 mph 0.01 in   Overcast
12:15 PM 42.8 °F 34.8 °F 42.8 °F 100% 30.01 in 5.0 mi West 17.3 mph 23.0 mph N/A   Overcast
12:35 PM 42.8 °F 34.8 °F 41.0 °F 93% 30.02 in 10.0 mi West 17.3 mph 21.9 mph N/A   Overcast
12:55 PM 42.8 °F 35.4 °F 41.0 °F 93% 30.03 in 10.0 mi WNW 15.0 mph 18.4 mph N/A   Overcast
1:15 PM 42.8 °F 36.6 °F 39.2 °F 87% 30.04 in 10.0 mi WNW 11.5 mph 21.9 mph N/A   Overcast
1:35 PM 41.0 °F 33.1 °F 39.2 °F 93% 30.06 in 10.0 mi West 15.0 mph 21.9 mph N/A   Overcast
1:55 PM 41.0 °F 33.9 °F 37.4 °F 87% 30.06 in 10.0 mi WNW 12.7 mph - N/A   Overcast
2:15 PM 41.0 °F 33.1 °F 37.4 °F 87% 30.06 in 10.0 mi WNW 15.0 mph 25.3 mph N/A   Overcast
2:35 PM 41.0 °F 33.5 °F 37.4 °F 87% 30.06 in 10.0 mi WNW 13.8 mph 21.9 mph N/A   Overcast
2:55 PM 41.0 °F 32.5 °F 37.4 °F 87% 30.08 in 10.0 mi WNW 17.3 mph 23.0 mph N/A   Overcast
3:15 PM 41.0 °F 32.8 °F 37.4 °F 87% 30.08 in 10.0 mi WNW 16.1 mph 25.3 mph N/A   Overcast
3:35 PM 41.0 °F 33.1 °F 37.4 °F 87% 30.09 in 10.0 mi NW 15.0 mph 24.2 mph N/A   Overcast
3:55 PM 41.0 °F 32.8 °F 35.6 °F 81% 30.11 in 10.0 mi NW 16.1 mph - N/A   Overcast
4:15 PM 41.0 °F 32.8 °F 35.6 °F 81% 30.10 in 10.0 mi NW 16.1 mph 21.9 mph N/A   Overcast
4:35 PM 41.0 °F 34.3 °F 35.6 °F 81% 30.12 in 10.0 mi NW 11.5 mph 17.3 mph N/A   Overcast
4:55 PM 41.0 °F 35.2 °F 35.6 °F 81% 30.13 in 10.0 mi NW 9.2 mph - N/A   Overcast
5:15 PM 41.0 °F 35.8 °F 35.6 °F 81% 30.14 in 10.0 mi NW 8.1 mph - N/A   Overcast
5:35 PM 41.0 °F 34.7 °F 35.6 °F 81% 30.15 in 10.0 mi WNW 10.4 mph - N/A   Overcast
5:55 PM 41.0 °F 35.8 °F 37.4 °F 87% 30.16 in 10.0 mi WNW 8.1 mph - N/A   Overcast
6:15 PM 41.0 °F 36.4 °F 35.6 °F 81% 30.16 in 10.0 mi WNW 6.9 mph - N/A   Scattered Clouds
6:35 PM 41.0 °F 36.4 °F 35.6 °F 81% 30.17 in 10.0 mi WNW 6.9 mph - N/A   Scattered Clouds
6:55 PM 41.0 °F 36.4 °F 35.6 °F 81% 30.18 in 10.0 mi WNW 6.9 mph - N/A   Scattered Clouds
7:15 PM 41.0 °F 35.8 °F 35.6 °F 81% 30.19 in 10.0 mi WNW 8.1 mph - N/A   Clear
7:35 PM 39.2 °F 35.0 °F 35.6 °F 87% 30.19 in 10.0 mi West 5.8 mph - N/A   Clear
7:55 PM 37.4 °F 31.4 °F 35.6 °F 93% 30.19 in 10.0 mi West 8.1 mph - N/A   Clear
8:15 PM 37.4 °F 32.1 °F 33.8 °F 87% 30.19 in 10.0 mi West 6.9 mph - N/A   Clear
8:35 PM 37.4 °F 32.1 °F 33.8 °F 87% 30.19 in 10.0 mi West 6.9 mph - N/A   Clear
8:55 PM 35.6 °F 30.7 °F 33.8 °F 93% 30.20 in 10.0 mi West 5.8 mph - N/A   Clear
9:15 PM 33.8 °F 27.7 °F 33.8 °F 100% 30.20 in 10.0 mi West 6.9 mph - N/A   Clear
9:35 PM 33.8 °F 27.7 °F 33.8 °F 100% 30.21 in 10.0 mi West 6.9 mph - N/A   Clear
9:55 PM 33.8 °F 28.6 °F 32.0 °F 93% 30.21 in 10.0 mi West 5.8 mph - N/A   Clear
10:15 PM 35.6 °F 29.9 °F 33.8 °F 93% 30.22 in 10.0 mi WNW 6.9 mph - N/A   Clear
10:35 PM 35.6 °F 30.7 °F 32.0 °F 87% 30.22 in 10.0 mi WNW 5.8 mph - N/A   Clear
10:55 PM 33.8 °F 28.6 °F 32.0 °F 93% 30.22 in 10.0 mi WNW 5.8 mph - N/A   Clear
11:15 PM 33.8 °F 28.6 °F 32.0 °F 93% 30.22 in 10.0 mi WNW 5.8 mph - N/A   Clear
11:35 PM 33.8 °F 29.6 °F 32.0 °F 93% 30.23 in 10.0 mi WNW 4.6 mph - N/A   Clear
11:55 PM 33.8 °F 28.6 °F 32.0 °F 93% 30.23 in 10.0 mi WNW 5.8 mph - N/A   Clear